Temp
21 22 22 21 22 21 21 20 20 20 20 19 18 18 18 18 17 16 16 16 17 16
21 21 22 21 21 21 21 21 20 20 20 19 18 17 17 17 16 16 15 15 16 16
21 22 22 21 21 21 20 21 20 20 20 19 18 17 17 17 16 16 17 15 15 16
21 23 22 21 21 21 21 20 20 20 19 19 18 17 17 17 17 16 16 16 16 16
23 22 22 22 21 21 21 20 20 20 20 19 18 18 18 18 17 16 17 16 16 16
22 22 23 24 22 21 21 21 22 21 20 19 18 19 19 19 18 17 17 16 16 16
22 23 23 24 24 23 21 21 21 21 20 20 19 19 18 17 18 18 18 16 16 15
22 22 22 22 24 22 21 20 20 19 19 18 19 19 17 16 17 17 16 15 16 15
23 22 22 22 21 20 20 19 19 19 18 18 19 18 16 16 16 16 16 16 16 15
24 23 22 22 21 20 20 19 18 18 19 18 16 16 16 16 16 16 16 16 16 15
25 23 23 22 21 20 19 19 18 17 16 16 16 16 17 16 16 16 16 16 15 15
24 23 23 22 21 20 19 19 18 17 16 15 15 16 15 16 16 15 16 15 15 15
24 23 23 22 21 20 19 17 17 17 16 15 15 15 16 15 14 14 14 14 15 15
22 22 23 22 20 18 17 17 17 16 16 16 15 15 15 15 14 14 14 15 15 14
Height
1526 1531 1534 1535 1537 1539 1542 1545 1545 1547 1548 1548 1550 1553 1553 1554 1556 1558 1560 1561 1562 1563
1520 1524 1527 1529 1533 1535 1538 1541 1541 1542 1543 1546 1548 1549 1551 1552 1554 1556 1558 1558 1558 1558
1513 1517 1519 1524 1527 1530 1533 1536 1535 1538 1540 1541 1544 1546 1547 1549 1550 1551 1554 1556 1556 1556
1506 1509 1513 1517 1520 1523 1528 1529 1531 1534 1535 1538 1539 1541 1543 1545 1546 1546 1549 1551 1553 1554
1497 1502 1506 1509 1512 1517 1520 1523 1527 1528 1530 1532 1535 1536 1537 1539 1540 1540 1542 1545 1547 1549
1492 1495 1497 1501 1507 1510 1514 1516 1519 1521 1523 1525 1527 1528 1530 1532 1534 1534 1537 1540 1542 1545
1484 1486 1490 1494 1498 1502 1505 1508 1511 1514 1517 1518 1520 1523 1525 1527 1530 1530 1532 1534 1538 1540
1476 1479 1483 1488 1491 1495 1499 1502 1507 1509 1511 1515 1519 1520 1521 1525 1527 1528 1529 1530 1530 1535
1468 1472 1476 1481 1486 1490 1495 1497 1501 1502 1505 1509 1511 1514 1517 1520 1522 1523 1525 1525 1526 1531
1461 1464 1469 1475 1480 1483 1487 1490 1493 1496 1497 1500 1510 1513 1514 1517 1519 1521 1520 1521 1522 1526
1454 1456 1463 1469 1473 1478 1481 1485 1488 1491 1494 1497 1499 1503 1509 1512 1514 1515 1516 1517 1517 1520
1448 1451 1457 1462 1467 1472 1477 1481 1483 1486 1488 1491 1496 1499 1504 1507 1508 1509 1511 1513 1515 1515
1440 1445 1450 1457 1463 1468 1472 1476 1479 1481 1483 1488 1493 1496 1498 1500 1502 1505 1507 1508 1509 1509
1436 1442 1448 1453 1458 1463 1468 1472 1476 1479 1482 1487 1490 1492 1493 1496 1497 1498 1500 1502 1503 1504
Wind_Speed
33 29 30 23 26 21 19 18 20 18 18 17 14 13 11 10 11 5 4 9 13 8
30 34 33 30 27 25 24 21 25 26 22 20 19 14 12 11 9 12 11 11 8 7
34 34 36 32 30 30 24 27 25 27 25 22 18 19 17 13 17 12 10 10 9 11
38 38 36 36 35 36 33 31 33 29 26 23 22 22 20 18 13 12 13 10 17 15
40 39 40 41 40 39 36 37 36 34 31 27 26 25 22 19 23 20 15 13 13 14
41 42 42 44 43 42 41 43 40 39 35 31 31 28 24 20 19 19 18 16 14 13
44 45 44 44 44 43 43 43 42 42 39 35 34 31 27 23 20 17 20 21 19 16
46 46 45 44 46 45 43 44 41 41 40 37 34 33 29 25 22 18 20 19 17 18
45 45 45 44 43 42 40 38 39 39 39 38 36 36 26 24 24 21 21 22 19 20
45 47 46 43 42 42 41 41 38 40 41 41 34 26 23 24 25 24 23 23 22 21
46 47 44 42 42 42 41 39 38 34 35 35 37 34 30 27 25 27 24 24 22 20
43 43 43 42 41 39 37 33 29 31 32 29 28 24 23 25 26 28 29 27 24 23
41 42 42 39 35 32 29 24 21 25 27 18 25 25 26 21 21 24 27 24 22 23
36 38 36 32 26 24 19 19 19 21 22 18 21 23 21 19 19 23 18 17 21 23
Wind_Direction
210 204 206 203 210 213 209 206 229 234 239 233 232 221 216 209 199 207 226 212 203 197
208 211 207 211 201 213 216 213 224 234 240 223 225 224 218 205 196 194 224 234 218 204
211 211 214 212 213 218 216 208 225 236 237 224 220 214 219 209 200 214 230 235 225 245
217 219 214 210 219 222 218 225 228 233 235 225 218 216 222 211 207 222 235 238 223 225
220 221 222 218 218 222 221 226 232 235 236 231 219 220 224 212 203 215 224 237 247 241
217 222 226 229 225 225 227 231 238 238 236 230 223 222 225 217 212 213 220 226 235 242
214 226 229 232 236 232 233 234 238 240 240 235 228 227 224 219 222 225 221 215 227 232
215 224 227 229 237 238 235 238 238 239 240 239 231 228 221 221 225 234 222 218 225 235
216 221 223 229 231 232 231 234 232 239 239 240 237 230 229 226 228 230 228 231 236 229
215 219 224 229 226 228 231 235 237 242 245 244 235 220 223 228 240 236 227 234 238 241
215 219 222 225 227 230 235 237 242 244 244 238 240 229 231 234 246 240 233 239 241 246
212 212 219 222 227 231 236 238 243 240 235 232 231 234 237 249 246 239 237 242 244 254
207 215 221 224 229 238 237 236 234 230 225 216 218 236 257 260 243 244 251 242 253 256
205 215 226 230 227 223 216 220 225 224 230 245 241 246 254 256 251 240 248 250 261 260